User: anonymous   Login
Location: Fort Wayne
(41.1310°N, 85.1290°W)
Time: 03:13:18
(UTC-05:00)
Language:

COSMOS 2428 - Orbit

View from above orbital plane
View from above orbital plane
View from above satellite
View from above satellite

Ground track
Ground track

The orbit data is extracted from the following two-line orbital elements,

1 31792U 07029A   18018.15761313  .00000321  00000-0  19996-3 0  9998
2 31792  70.9459 321.0174 0010517 301.1767  58.8322 14.12427954544421
Epoch (UTC): 18 January 2018 03:46:57
Eccentricity: 0.0010517
inclination: 70.9459°
perigee height: 843 km
apogee height: 858 km
right ascension of ascending node: 321.0174°
argument of perigee: 301.1767°
revolutions per day: 14.12427954
mean anomaly at epoch: 58.8322°
orbit number at epoch: 54442

The dashed part of the orbit path shows where the satellite is in the earth's shadow,  

DLR